Location: Anaheim
(33.8350°N, 117.9140°W)
Time: 12:46:53
(UTC-07:00)

Amateur Radio Satellites - All Passes

Search period start: 07 July 2015 12:16
Search period end: 08 July 2015 12:16
Location: Anaheim, 33.8350°N, 117.9140°W

Satellite Date Start Highest point End Downlink Frequencies (MHz)
Time Altitude Azimuth
CUBEBUG 1 07 Jul 12:22:42 12:27:04 83° 283° (WNW) 12:31:22 437.445
QB50P1 07 Jul 12:24:42 12:27:21 15° 267° (W) 12:29:49 145.935-145.965
Oscar 19 07 Jul 12:27:18 12:30:23 17° 67° (ENE) 12:33:41 437.125/150
NANOSAT C BR1 07 Jul 12:39:11 12:40:22 11° 269° (W) 12:41:16 145.865
BUGSAT 1 07 Jul 12:45:32 12:47:53 14° 268° (W) 12:50:01 437.445
PHONESAT 2.4 07 Jul 12:55:25 12:58:53 87° 209° (SSW) 13:02:21 2401.200-2431.200
ESTCUBE 1 07 Jul 13:00:17 13:04:06 26° 289° (WNW) 13:07:49 437.505/2401.250
VELOX 1 07 Jul 13:05:10 13:07:50 15° 291° (WNW) 13:10:18 145.980
SPROUT 07 Jul 13:11:43 13:16:00 82° 283° (WNW) 13:20:16 437.525
ISS 07 Jul 13:19:32 13:21:58 20° 33° (NNE) 13:24:27 145.825
TISAT 1 07 Jul 13:39:58 13:44:05 58° 285° (WNW) 13:48:10 437.305
YUBILEINY 07 Jul 13:47:55 13:55:53 39° 75° (ENE) 14:04:02 435.215
BEESAT 07 Jul 14:03:45 14:08:04 33° 97° (E) 14:12:23 436.000
Oscar 19 07 Jul 14:04:26 14:09:24 49° 261° (W) 14:14:21 437.125/150
Cosmos 2491 07 Jul 14:06:26 14:13:29 29° 86° (E) 14:20:50 435.465 / 435.565
RS-15 07 Jul 14:12:18 14:18:31 15° 258° (WSW) 14:23:33 29.354- 29.394
SWISSCUBE 07 Jul 14:19:36 14:24:19 55° 100° (E) 14:29:01 437.505
ITAMSAT 1 07 Jul 14:23:14 14:28:23 65° 75° (ENE) 14:33:36 435.822/435.867
ITUPSAT 1 07 Jul 14:26:35 14:31:20 59° 100° (E) 14:36:05 437.325
PHONESAT 2.4 07 Jul 14:34:39 14:36:35 14° 218° (SW) 14:38:24 2401.200-2431.200
AO-7 07 Jul 14:35:44 14:41:51 24° 60° (ENE) 14:48:17 29.400- 29.500
Gurwin Techsat 1B 07 Jul 14:37:02 14:42:21 88° 251° (WSW) 14:47:43 435.225
AIST 1 07 Jul 14:45:07 14:48:41 25° 91° (E) 14:52:22
JUGNU 07 Jul 14:54:06 14:57:39 16° 169° (S) 15:01:16 437.505
ISS 07 Jul 14:55:29 14:58:26 33° 228° (SW) 15:01:21 145.825
JAS-2 07 Jul 15:07:10 15:11:58 41° 72° (ENE) 15:17:02 435.910
STARS 07 Jul 15:07:31 15:09:43 14° 92° (E) 15:12:07 437.465
PCSat 07 Jul 15:08:42 15:14:06 82° 294° (WNW) 15:19:34 145.827
SO-50 07 Jul 15:13:49 15:17:47 29° 112° (ESE) 15:21:56 436.795
BEESAT 3 07 Jul 15:29:00 15:32:49 41° 57° (ENE) 15:36:37 437.485
BEESAT 07 Jul 15:42:04 15:45:43 21° 291° (WNW) 15:49:12 436.000
YUBILEINY 07 Jul 15:44:45 15:52:43 39° 272° (W) 16:00:31 435.215
BEESAT 2 07 Jul 15:46:06 15:50:05 50° 59° (ENE) 15:53:58 435.950
AIST 2 07 Jul 15:51:04 15:53:19 14° 48° (NE) 15:55:42 435.215
SRMSAT 07 Jul 15:53:52 15:56:18 13° 166° (SSE) 15:58:51 437.500
HORYU 2 07 Jul 15:54:34 15:58:58 78° 76° (ENE) 16:03:25 437.375
KKS-1 07 Jul 15:58:46 16:03:12 78° 284° (WNW) 16:07:37 437.445
SWISSCUBE 07 Jul 15:59:22 16:01:45 13° 293° (WNW) 16:03:51 437.505
Cosmos 2491 07 Jul 16:01:26 16:09:59 52° 282° (WNW) 16:18:30 435.465 / 435.565
ITAMSAT 1 07 Jul 16:06:19 16:08:26 12° 270° (W) 16:10:11 435.822/435.867
ITUPSAT 1 07 Jul 16:06:37 16:08:47 13° 294° (WNW) 16:10:40 437.325
AIST 1 07 Jul 16:22:57 16:26:20 21° 285° (WNW) 16:29:37
AO-7 07 Jul 16:25:45 16:34:02 68° 256° (WSW) 16:42:23 29.400- 29.500
Cosmos 2504 07 Jul 16:35:20 16:42:48 52° 80° (E) 16:50:49 435.465 / 435.565
JUGNU 07 Jul 16:41:41 16:46:02 21° 179° (S) 16:50:24 437.505
MOZHAYETS 4 07 Jul 16:41:46 16:45:44 28° 95° (E) 16:49:45
STARS 07 Jul 16:42:16 16:46:23 40° 287° (WNW) 16:50:28 437.465
O/OREOS (USA 219) 07 Jul 16:50:49 16:55:15 52° 68° (ENE) 16:59:41 437.305
JAS-2 07 Jul 16:53:58 16:57:28 17° 269° (W) 17:00:50 435.910
SO-50 07 Jul 16:54:13 16:58:17 27° 308° (NW) 17:02:25 436.795
PCSat 07 Jul 16:56:55 16:58:28 11° 315° (NW) 16:59:43 145.827
BEESAT 3 07 Jul 17:08:33 17:10:26 13° 250° (WSW) 17:12:05 437.485
CUTE-I 07 Jul 17:25:48 17:29:43 22° 68° (ENE) 17:33:48 437.470
BEESAT 2 07 Jul 17:26:56 17:27:43 10° 251° (WSW) 17:28:15 435.950
AIST 2 07 Jul 17:28:11 17:32:12 47° 245° (WSW) 17:36:08 435.215
SRMSAT 07 Jul 17:40:39 17:44:50 20° 175° (S) 17:49:02 437.500
Cubesat XI-IV 07 Jul 17:59:46 18:04:52 47° 73° (ENE) 18:10:01 437.490
MOZHAYETS 4 07 Jul 18:19:07 18:22:51 23° 289° (WNW) 18:26:26
DANDE 07 Jul 18:25:26 18:26:09 11° 74° (ENE) 18:26:59 436.750
GONETS M04 07 Jul 18:27:33 18:30:58 13° 62° (ENE) 18:35:07
Cosmos 2504 07 Jul 18:28:26 18:34:42 26° 273° (W) 18:40:59 435.465 / 435.565
JUGNU 07 Jul 18:30:35 18:34:26 17° 189° (S) 18:38:13 437.505
O/OREOS (USA 219) 07 Jul 18:32:39 18:34:16 11° 260° (W) 18:35:35 437.305
CUSAT 1 07 Jul 18:36:49 18:39:16 35° 80° (E) 18:41:54 437.405
HO-68 07 Jul 18:51:15 18:52:43 11° 58° (ENE) 18:54:42 435.675
CUBESAT XI-V 07 Jul 18:55:01 18:59:39 64° 100° (E) 19:04:14 437.345
CUTE-I 07 Jul 19:04:30 19:09:33 41° 262° (W) 19:14:35 437.470
BRITE-PL 07 Jul 19:08:58 19:13:12 25° 72° (ENE) 19:17:21 437.365/2234.400
PRISM 07 Jul 19:11:20 19:14:39 23° 95° (E) 19:18:02 437.425
SRMSAT 07 Jul 19:29:11 19:33:23 20° 185° (S) 19:37:33 437.500
CANX-2 07 Jul 19:33:56 19:34:52 11° 68° (ENE) 19:36:05 2200.000
STRAND 1 07 Jul 19:40:05 19:45:10 58° 101° (E) 19:50:12 437.568
Cubesat XI-IV 07 Jul 19:41:32 19:45:15 18° 268° (W) 19:48:44 437.490
GOMX 1 07 Jul 20:02:55 20:07:51 50° 75° (ENE) 20:12:30 467.674
SEEDS 07 Jul 20:09:58 20:13:05 21° 71° (ENE) 20:16:20 437.485
AAUSAT CUBESAT 2 07 Jul 20:12:35 20:14:50 15° 70° (ENE) 20:17:17 437.432
GONETS M04 07 Jul 20:20:42 20:29:26 83° 83° (E) 20:38:08
DOVE 4 07 Jul 20:29:05 20:33:51 58° 76° (ENE) 20:38:21 437.250
HO-68 07 Jul 20:32:20 20:39:25 72° 73° (ENE) 20:46:33 435.675
CUBESAT XI-V 07 Jul 20:35:18 20:36:36 11° 293° (WNW) 20:37:37 437.345
COMPASS 1 07 Jul 20:40:16 20:44:06 38° 74° (ENE) 20:48:00 437.405
BRITE-PL 07 Jul 20:46:35 20:51:34 35° 263° (W) 20:56:14 437.365/2234.400
PRISM 07 Jul 20:46:42 20:50:00 22° 289° (WNW) 20:53:12 437.425
CINEMA 3 07 Jul 20:47:56 20:52:05 38° 74° (ENE) 20:56:06 145.822/145.860
Oscar 11 07 Jul 20:57:58 21:01:18 23° 71° (ENE) 21:04:45 145.826/435.025
ZACube-1 07 Jul 20:59:18 21:01:04 13° 69° (ENE) 21:03:03 437.345
AUBIESAT-1 07 Jul 21:01:46 21:05:17 23° 100° (E) 21:09:02 437.475
CUTE 1.7 + AOD 2 07 Jul 21:02:14 21:06:24 66° 259° (W) 21:10:37 437.475
CANX-2 07 Jul 21:06:18 21:10:24 51° 261° (W) 21:14:31 2200.000
CUBEBUG 2 07 Jul 21:11:27 21:15:13 31° 73° (ENE) 21:18:57 437.445
SRMSAT 07 Jul 21:19:19 21:21:54 13° 194° (SSW) 21:24:23 437.500
STRAND 1 07 Jul 21:21:07 21:23:55 14° 294° (WNW) 21:26:28 437.568
FUNcube-1 07 Jul 21:31:43 21:35:23 30° 73° (ENE) 21:39:03 145.935
DELFI C3 07 Jul 21:35:40 21:39:26 42° 75° (ENE) 21:43:16 145.870
M-CUBED/EXP-1 PRIME 07 Jul 21:38:57 21:43:23 74° 106° (ESE) 21:48:04 437.505
GOMX 1 07 Jul 21:43:19 21:46:12 14° 268° (W) 21:48:44 467.674
SEEDS 07 Jul 21:45:20 21:48:47 24° 265° (W) 21:52:11 437.485
AAUSAT CUBESAT 2 07 Jul 21:46:22 21:50:10 35° 263° (W) 21:53:59 437.432
Cosmos 2499 07 Jul 21:46:56 21:54:57 67° 81° (E) 22:03:33 435.465 / 435.565
UWE-3 07 Jul 21:53:58 21:58:13 83° 78° (ENE) 22:02:23 435.000/436.395/437.385
DOVE 4 07 Jul 22:10:23 22:11:56 11° 269° (W) 22:13:07 437.250
DX 1 07 Jul 22:15:55 22:19:56 37° 73° (ENE) 22:24:00 434.975-435.025
COMPASS 1 07 Jul 22:17:55 22:19:59 13° 269° (W) 22:21:50 437.405
GONETS M04 07 Jul 22:20:21 22:25:22 16° 278° (W) 22:29:46
HUMSAT D 07 Jul 22:20:24 22:24:21 49° 75° (ENE) 22:28:19 437.325/437.525
ESTCUBE 1 07 Jul 22:20:49 22:23:09 14° 68° (ENE) 22:25:42 437.505/2401.250
VELOX 1 07 Jul 22:21:44 22:25:10 23° 71° (ENE) 22:28:43 145.980
HO-68 07 Jul 22:23:16 22:27:51 17° 269° (W) 22:32:01 435.675
CINEMA 3 07 Jul 22:26:51 22:29:26 15° 267° (W) 22:31:46 145.822/145.860
UKube-1 07 Jul 22:30:44 22:34:55 50° 75° (ENE) 22:39:10 .
ZACube-1 07 Jul 22:33:08 22:37:08 41° 262° (W) 22:41:05 437.345
Oscar 11 07 Jul 22:33:53 22:37:25 24° 265° (W) 22:40:52 145.826/435.025
AUBIESAT-1 07 Jul 22:36:06 22:39:57 29° 292° (WNW) 22:43:55 437.475
UNISAT 6 07 Jul 22:36:34 22:39:57 22° 95° (E) 22:43:30 437.425
CUBEBUG 2 07 Jul 22:49:10 22:52:00 17° 267° (W) 22:54:37 437.445
NANOSAT C BR1 07 Jul 22:51:52 22:52:18 10° 90° (E) 22:53:01 145.865
50 SAT 07 Jul 22:52:08 22:55:53 57° 76° (ENE) 22:59:39 437.505
DUCHIFAT 1 07 Jul 22:56:30 22:57:56 12° 91° (E) 22:59:37 145.980
POLYITAN 1 07 Jul 23:05:30 23:08:11 17° 93° (E) 23:11:01 437.675
AISAT 07 Jul 23:08:59 23:13:27 86° 77° (ENE) 23:17:56 437.250
FUNcube-1 07 Jul 23:09:03 23:11:48 16° 267° (W) 23:14:22 145.935
DELFI C3 07 Jul 23:13:35 23:14:48 11° 270° (W) 23:15:44 145.870
CUBEBUG 1 07 Jul 23:14:44 23:19:00 49° 75° (ENE) 23:23:18 437.445
M-CUBED/EXP-1 PRIME 07 Jul 23:17:28 23:17:47 10° 297° (WNW) 23:17:48 437.505
ANTELSAT 07 Jul 23:20:19 23:24:46 73° 101° (E) 23:29:19 437.575/2403.000
TIGRISAT 07 Jul 23:30:55 23:35:22 88° 278° (W) 23:39:54 435.000
POPSAT HIP 1 07 Jul 23:33:19 23:37:11 36° 98° (E) 23:41:05 437.405
QB50P2 07 Jul 23:33:35 23:37:30 38° 98° (E) 23:41:27 145.880/145.840
Cosmos 2499 07 Jul 23:41:42 23:47:37 21° 274° (W) 23:53:21 435.465 / 435.565
SO-50 07 Jul 23:50:19 23:52:13 12° 44° (NE) 23:54:21 436.795
DX 1 07 Jul 23:53:38 23:56:21 15° 267° (W) 23:58:52 434.975-435.025
ESTCUBE 1 07 Jul 23:55:19 23:59:40 45° 261° (W) 00:04:02 437.505/2401.250
VELOX 1 07 Jul 23:57:49 00:01:37 26° 264° (W) 00:05:21 145.980
PCSat 08 Jul 00:00:48 00:05:42 35° 57° (ENE) 00:10:39 145.827
SPROUT 08 Jul 00:01:54 00:06:00 45° 75° (ENE) 00:10:07 437.525
RS-15 08 Jul 00:05:51 00:13:06 22° 104° (ESE) 00:21:05 29.354- 29.394
UKube-1 08 Jul 00:10:07 00:11:25 11° 269° (W) 00:12:25 .
QB50P1 08 Jul 00:11:40 00:15:51 71° 284° (WNW) 00:20:02 145.935-145.965
UNISAT 6 08 Jul 00:12:55 00:16:43 28° 288° (WNW) 00:20:32 437.425
NANOSAT C BR1 08 Jul 00:24:24 00:28:28 49° 285° (WNW) 00:32:31 145.865
TISAT 1 08 Jul 00:27:52 00:32:02 60° 76° (ENE) 00:36:12 437.305
BUGSAT 1 08 Jul 00:29:25 00:33:26 70° 284° (WNW) 00:37:25 437.445
DUCHIFAT 1 08 Jul 00:30:01 00:34:00 43° 286° (WNW) 00:37:58 145.980
POLYITAN 1 08 Jul 00:40:26 00:44:10 31° 287° (WNW) 00:47:52 437.675
CUBEBUG 1 08 Jul 00:53:55 00:55:41 12° 269° (W) 00:57:10 437.445
BEESAT 08 Jul 01:06:49 01:10:39 25° 70° (ENE) 01:14:36 436.000
POPSAT HIP 1 08 Jul 01:10:18 01:12:47 15° 291° (WNW) 01:15:07 437.405
QB50P2 08 Jul 01:10:43 01:13:07 14° 291° (WNW) 01:15:19 145.880/145.840
SWISSCUBE 08 Jul 01:22:22 01:26:48 41° 73° (ENE) 01:31:19 437.505
SO-50 08 Jul 01:28:32 01:33:30 84° 242° (WSW) 01:38:19 436.795
ITUPSAT 1 08 Jul 01:29:34 01:34:05 43° 73° (ENE) 01:38:39 437.325
SPROUT 08 Jul 01:40:32 01:42:22 12° 269° (W) 01:43:56 437.525
PCSat 08 Jul 01:44:29 01:49:00 26° 252° (WSW) 01:53:22 145.827
RS-15 08 Jul 02:13:31 02:24:26 79° 301° (WNW) 02:35:38 29.354- 29.394
Cosmos 2491 08 Jul 02:16:21 02:25:03 68° 81° (E) 02:33:41 435.465 / 435.565
Oscar 19 08 Jul 02:19:39 02:24:48 81° 102° (ESE) 02:29:57 437.125/150
AIST 1 08 Jul 02:32:54 02:37:13 64° 82° (E) 02:41:28
ITAMSAT 1 08 Jul 02:40:29 02:45:04 31° 97° (E) 02:49:41 435.822/435.867
YUBILEINY 08 Jul 02:43:38 02:51:51 51° 91° (E) 03:00:12 435.215
BEESAT 08 Jul 02:44:20 02:48:26 27° 264° (W) 02:52:26 436.000
KKS-1 08 Jul 02:52:53 02:57:14 57° 75° (ENE) 03:01:37 437.445
Gurwin Techsat 1B 08 Jul 02:57:21 03:02:31 51° 99° (E) 03:07:41 435.225
SWISSCUBE 08 Jul 03:01:44 03:04:52 17° 268° (W) 03:07:49 437.505
ITUPSAT 1 08 Jul 03:09:15 03:12:13 16° 268° (W) 03:14:59 437.325
STARS 08 Jul 03:34:46 03:39:10 78° 258° (WSW) 03:43:34 437.465
MOZHAYETS 4 08 Jul 03:40:51 03:43:46 18° 69° (ENE) 03:46:53
HORYU 2 08 Jul 03:50:28 03:53:42 20° 94° (E) 03:57:05 437.375
JAS-2 08 Jul 04:02:36 04:09:32 63° 101° (E) 04:17:09 435.910
Oscar 19 08 Jul 04:02:55 04:03:34 10° 295° (WNW) 04:03:52 437.125/150
Cosmos 2491 08 Jul 04:15:00 04:21:13 21° 276° (W) 04:26:58 435.465 / 435.565
ITAMSAT 1 08 Jul 04:20:10 04:24:28 26° 291° (WNW) 04:28:37 435.822/435.867
VERMONT LUNAR 08 Jul 04:22:54 04:24:57 17° 144° (SE) 04:27:04 437.305
RS-15 08 Jul 04:30:57 04:39:08 22° 326° (NNW) 04:47:07 29.354- 29.394
AO-7 08 Jul 04:31:49 04:39:57 54° 102° (ESE) 04:48:04 29.400- 29.500
Gurwin Techsat 1B 08 Jul 04:38:40 04:42:08 17° 293° (WNW) 04:45:21 435.225
YUBILEINY 08 Jul 04:41:39 04:49:04 29° 289° (WNW) 04:56:15 435.215
Cosmos 2504 08 Jul 05:02:17 05:08:34 40° 90° (E) 05:14:57 435.465 / 435.565
MOZHAYETS 4 08 Jul 05:16:29 05:20:44 37° 263° (W) 05:24:59
BEESAT 3 08 Jul 05:18:41 05:21:33 19° 111° (ESE) 05:24:35 437.485
HORYU 2 08 Jul 05:26:27 05:30:24 30° 288° (WNW) 05:34:15 437.375
BEESAT 2 08 Jul 05:36:24 05:39:41 24° 112° (ESE) 05:43:04 435.950
PHONESAT 2.4 08 Jul 05:40:37 05:42:09 13° 142° (SE) 05:43:48 2401.200-2431.200
JAS-2 08 Jul 05:48:56 05:54:14 23° 292° (WNW) 05:59:36 435.910
CUTE-I 08 Jul 05:49:02 05:49:52 10° 89° (E) 05:51:07 437.470
CUBESAT XI-V 08 Jul 05:54:28 05:58:49 39° 74° (ENE) 06:03:14 437.345
ISS 08 Jul 05:55:06 05:58:11 42° 133° (SE) 06:01:16 145.825
VERMONT LUNAR 08 Jul 05:58:31 06:01:36 69° 338° (NNW) 06:04:42 437.305
PRISM 08 Jul 05:59:49 06:00:53 11° 67° (ENE) 06:02:13 437.425
Cubesat XI-IV 08 Jul 06:21:32 06:25:53 26° 95° (E) 06:30:19 437.490
AO-7 08 Jul 06:25:20 06:32:24 31° 297° (WNW) 06:39:14 29.400- 29.500
STRAND 1 08 Jul 06:52:01 06:57:01 56° 74° (ENE) 07:02:05 437.568
Cosmos 2504 08 Jul 06:55:04 07:00:55 28° 287° (WNW) 07:06:35 435.465 / 435.565
BEESAT 3 08 Jul 06:55:46 06:59:20 29° 305° (NW) 07:02:55 437.485
RS-15 08 Jul 06:55:52 06:58:02 11° 2° (N) 07:00:17 29.354- 29.394
O/OREOS (USA 219) 08 Jul 06:59:03 07:03:28 62° 291° (WNW) 07:07:53 437.305
BEESAT 2 08 Jul 07:14:17 07:17:41 24° 307° (NW) 07:21:03 435.950
PHONESAT 2.4 08 Jul 07:16:24 07:19:49 82° 154° (SSE) 07:23:15 2401.200-2431.200
AIST 2 08 Jul 07:21:49 07:26:03 88° 297° (WNW) 07:30:21 435.215
GONETS M04 08 Jul 07:23:57 07:29:03 18° 83° (E) 07:34:41
CUTE-I 08 Jul 07:25:14 07:30:35 74° 285° (WNW) 07:35:54 437.470
DANDE 08 Jul 07:27:45 07:34:43 55° 97° (E) 07:40:07 436.750
PRISM 08 Jul 07:31:52 07:35:55 51° 260° (W) 07:40:01 437.425
ISS 08 Jul 07:32:29 07:34:44 17° 328° (NNW) 07:36:56 145.825
CUBESAT XI-V 08 Jul 07:33:20 07:36:27 17° 268° (W) 07:39:22 437.345
VERMONT LUNAR 08 Jul 07:36:10 07:38:48 24° 353° (N) 07:41:25 437.305
CUSAT 1 08 Jul 07:37:14 07:43:43 88° 285° (WNW) 07:48:33 437.405
AUBIESAT-1 08 Jul 07:48:28 07:49:26 11° 64° (ENE) 07:50:35 437.475
Cubesat XI-IV 08 Jul 08:01:14 08:06:01 33° 289° (WNW) 08:10:42 437.490
HO-68 08 Jul 08:06:39 08:10:23 15° 90° (E) 08:14:36 435.675
GOMX 1 08 Jul 08:10:00 08:12:31 16° 93° (E) 08:15:14 467.674
M-CUBED/EXP-1 PRIME 08 Jul 08:24:36 08:27:44 42° 70° (ENE) 08:31:01 437.505
DOVE 4 08 Jul 08:32:58 08:35:47 18° 94° (E) 08:38:47 437.250
STRAND 1 08 Jul 08:33:56 08:36:39 14° 269° (W) 08:39:03 437.568
CINEMA 3 08 Jul 08:48:28 08:49:43 11° 91° (E) 08:51:15 145.822/145.860
CUTE 1.7 + AOD 2 08 Jul 08:51:37 08:55:17 27° 96° (E) 08:58:59 437.475
PHONESAT 2.4 08 Jul 08:54:58 08:58:03 30° 350° (N) 09:01:09 2401.200-2431.200
BRITE-PL 08 Jul 08:55:24 08:59:35 71° 284° (WNW) 09:03:42 437.365/2234.400
CANX-2 08 Jul 08:55:28 08:59:23 34° 97° (E) 09:03:20 2200.000
RS-15 08 Jul 09:07:54 09:16:45 25° 37° (NE) 09:26:17 29.354- 29.394
DANDE 08 Jul 09:13:11 09:17:52 19° 284° (WNW) 09:21:36 436.750
VERMONT LUNAR 08 Jul 09:13:30 09:16:12 27° 10° (N) 09:18:56 437.305
GONETS M04 08 Jul 09:16:17 09:25:06 77° 278° (W) 09:33:52
AUBIESAT-1 08 Jul 09:20:55 09:23:55 30° 258° (WSW) 09:27:00 437.475
SEEDS 08 Jul 09:32:27 09:36:43 71° 101° (E) 09:40:59 437.485
AAUSAT CUBESAT 2 08 Jul 09:32:43 09:36:46 45° 99° (E) 09:40:49 437.432
UNISAT 6 08 Jul 09:33:57 09:35:24 12° 68° (ENE) 09:37:05 437.425
GOMX 1 08 Jul 09:47:10 09:50:48 30° 287° (WNW) 09:54:25 467.674
UWE-3 08 Jul 09:48:05 09:51:21 22° 95° (E) 09:54:47 435.000/436.395/437.385
HO-68 08 Jul 09:51:44 09:58:54 77° 287° (WNW) 10:06:03 435.675
COMPASS 1 08 Jul 10:02:35 10:06:46 62° 284° (WNW) 10:10:56 437.405
DOVE 4 08 Jul 10:10:03 10:13:36 27° 287° (WNW) 10:17:10 437.250
HUMSAT D 08 Jul 10:10:32 10:11:31 11° 91° (E) 10:12:48 437.325/437.525
ANTELSAT 08 Jul 10:15:53 10:19:49 37° 74° (ENE) 10:23:47 437.575/2403.000
Cosmos 2499 08 Jul 10:19:42 10:26:32 57° 92° (E) 10:33:30 435.465 / 435.565
CINEMA 3 08 Jul 10:23:09 10:27:12 46° 285° (WNW) 10:31:21 145.822/145.860
POPSAT HIP 1 08 Jul 10:23:17 10:26:02 18° 70° (ENE) 10:28:55 437.405
QB50P2 08 Jul 10:23:37 10:26:28 18° 70° (ENE) 10:29:28 145.880/145.840
Oscar 11 08 Jul 10:23:59 10:28:22 81° 102° (ESE) 10:32:43 145.826/435.025
UKube-1 08 Jul 10:24:27 10:25:41 11° 91° (E) 10:27:12 .
ZACube-1 08 Jul 10:25:03 10:29:10 45° 99° (E) 10:33:23 437.345
TIGRISAT 08 Jul 10:26:04 10:30:10 48° 74° (ENE) 10:34:16 435.000
CUTE 1.7 + AOD 2 08 Jul 10:27:49 10:31:02 20° 289° (WNW) 10:34:08 437.475
CANX-2 08 Jul 10:32:16 10:35:04 16° 290° (WNW) 10:37:41 2200.000
PHONESAT 2.4 08 Jul 10:33:36 10:36:36 27° 7° (N) 10:39:37 2401.200-2431.200
CUBEBUG 2 08 Jul 10:41:57 10:46:11 63° 284° (WNW) 10:50:31 437.445
VERMONT LUNAR 08 Jul 10:50:11 10:53:19 86° 206° (SSW) 10:56:27 437.305
DELFI C3 08 Jul 10:53:09 10:57:11 62° 284° (WNW) 11:01:11 145.870
FUNcube-1 08 Jul 10:59:07 11:03:22 69° 284° (WNW) 11:07:43 145.935
QB50P1 08 Jul 11:00:20 11:04:25 49° 75° (ENE) 11:08:32 145.935-145.965
AISAT 08 Jul 11:04:20 11:07:41 22° 95° (E) 11:11:07 437.250
UNISAT 6 08 Jul 11:07:41 11:11:50 47° 261° (W) 11:15:57 437.425
CUBEBUG 1 08 Jul 11:09:37 11:11:10 12° 91° (E) 11:12:58 437.445
AAUSAT CUBESAT 2 08 Jul 11:10:09 11:12:00 12° 291° (WNW) 11:13:39 437.432
NANOSAT C BR1 08 Jul 11:12:38 11:16:50 70° 77° (ENE) 11:21:03 145.865
BUGSAT 1 08 Jul 11:15:19 11:19:20 45° 75° (ENE) 11:23:22 437.445
DUCHIFAT 1 08 Jul 11:17:58 11:22:11 80° 77° (ENE) 11:26:25 145.980
RS-15 08 Jul 11:19:24 11:31:18 84° 62° (ENE) 11:43:35 29.354- 29.394
GONETS M04 08 Jul 11:20:18 11:23:42 12° 299° (WNW) 11:26:19
UWE-3 08 Jul 11:24:16 11:27:52 26° 287° (WNW) 11:31:26 435.000/436.395/437.385
POLYITAN 1 08 Jul 11:28:52 11:33:05 70° 259° (W) 11:37:18 437.675
HO-68 08 Jul 11:42:56 11:45:41 12° 302° (WNW) 11:47:56 435.675
HUMSAT D 08 Jul 11:43:31 11:47:33 47° 285° (WNW) 11:51:37 437.325/437.525
DX 1 08 Jul 11:43:49 11:48:07 66° 284° (WNW) 11:52:23 434.975-435.025
VELOX 1 08 Jul 11:51:19 11:55:44 78° 102° (ESE) 12:00:06 145.980
ESTCUBE 1 08 Jul 11:51:45 11:56:09 49° 99° (E) 12:00:32 437.505/2401.250
ANTELSAT 08 Jul 11:54:27 11:56:48 14° 268° (W) 11:58:56 437.575/2403.000
SPROUT 08 Jul 11:55:18 11:55:53 10° 90° (E) 11:56:47 437.525
POPSAT HIP 1 08 Jul 11:57:54 12:01:42 31° 263° (W) 12:05:27 437.405
UKube-1 08 Jul 11:57:58 12:02:09 48° 286° (WNW) 12:06:16 .
QB50P2 08 Jul 11:58:25 12:02:11 30° 263° (W) 12:05:53 145.880/145.840
ZACube-1 08 Jul 12:03:11 12:05:13 13° 291° (WNW) 12:07:01 437.345
50 SAT 08 Jul 12:05:51 12:09:40 50° 285° (WNW) 12:13:28 437.505
TIGRISAT 08 Jul 12:06:08 12:07:15 11° 269° (W) 12:08:05 435.000
